{"data":{"norad_id":52096,"intl_designator":"2022-029J","name":"STARLINK-3717","alt_names":[],"object_type":"PAYLOAD","status":"ACTIVE","operator":null,"country":"US","launch_date":"2022-03-19","launch_site_code":"AFETR","launch_vehicle":null,"mission":null,"orbit_class":"UNKNOWN","rcs_meters":null,"size_class":null,"mass_kg":null,"dimensions":null,"purposes":["comms"],"wikipedia_slug":null,"has_3d_model":false,"image_url":null,"decayed_at":null,"tle_current":{"epoch":"2026-05-25T03:38:58.122240Z","epoch_age_seconds":65077,"freshness":"FRESH","line1":"1 52096U 22029J   26145.15206160 -.00000889  00000+0 -37765-4 0  9994","line2":"2 52096  53.2136  95.8641 0001499  83.1085 277.0077 15.08826792232325","mean_motion":15.08826792,"eccentricity":0.0001499,"inclination_deg":53.2136,"raan_deg":95.8641,"arg_perigee_deg":83.1085,"mean_anomaly_deg":277.0077,"bstar":-3.7765e-5,"rev_number":23232,"period_min":95.438390121058,"perigee_km":538.74676450862,"apogee_km":540.82075715272,"semimajor_km":6917.9207608307,"source":"CELESTRAK","updated_at":"2026-05-25T13:38:17.001466Z"}}}